FW3055 Weather Reports


time (UTC)temp
F
wind
direction
speed
knots
gust
knots
rain 1hr
in
rain 24hr
in
rain mn
in
humidity
%
barometer
mb
20260906143006 70 5 5.2 8.7 0.00 0.00 0.00 1 1019.2
20260906141501 69 5 4.3 8.7 0.00 0.00 0.00 1 1019.1
20260906140108 68 5 5.2 7.8 0.00 0.00 0.00 1 1019.1
20260906134608 67 5 4.3 8.7 0.00 0.00 0.00 1 1019.1
20260906133054 66 5 7.0 9.6 0.00 0.00 0.00 1 1019.2
20260906131544 66 5 5.2 8.7 0.00 0.00 0.00 1 1019.2
20260906130040 66 5 4.3 7.8 0.00 0.00 0.00 1 1019.3
20260906124536 65 5 4.3 7.8 0.00 0.00 0.00 1 1019.0
20260906123038 64 5 5.2 8.7 0.00 0.00 0.00 1 1018.7
20260906121530 64 5 4.3 7.8 0.00 0.00 0.00 1 1018.3
20260906120023 63 5 3.5 7.0 0.00 0.00 0.00 1 1018.4
20260906114523 63 5 5.2 8.7 0.00 0.00 0.00 1 1018.1
20260906113014 63 5 3.5 7.0 0.00 0.00 0.00 1 1017.9
20260906111509 64 5 3.5 7.8 0.00 0.00 0.00 1 1017.8
20260906110005 64 5 6.1 10.4 0.00 0.00 0.00 1 1017.5
20260906104501 64 5 5.2 9.6 0.00 0.00 0.00 1 1017.2
20260906103057 64 5 4.3 7.8 0.00 0.00 0.00 1 1017.3
20260906101553 64 5 4.3 8.7 0.00 0.00 0.00 1 1017.4
20260906100049 64 5 5.2 7.8 0.00 0.00 0.00 1 1017.5
20260906094544 64 5 4.3 8.7 0.00 0.00 0.00 1 1017.3
20260906093049 64 5 3.5 7.8 0.00 0.00 0.00 1 1017.2
20260906091535 64 5 4.3 7.8 0.00 0.00 0.00 1 1017.0
20260906090033 64 5 2.6 4.3 0.00 0.00 0.00 1 1017.1
20260906084527 64 5 2.6 7.0 0.00 0.00 0.00 1 1017.1
20260906083024 65 5 4.3 7.0 0.00 0.00 0.00 1 1017.1
20260906081539 65 5 3.5 7.0 0.00 0.00 0.00 1 1017.1
20260906080015 65 5 4.3 7.8 0.00 0.00 0.00 1 1017.2
20260906074511 65 5 3.5 5.2 0.00 0.00 0.00 1 1017.0
20260906073015 66 5 3.5 7.0 0.00 0.00 0.00 1 1017.2
20260906071501 66 5 3.5 5.2 0.00 0.00 0.00 1 1017.3
20260906070120 67 5 2.6 4.3 0.00 0.00 0.00 1 1017.6
20260906064553 67 5 3.5 4.3 0.00 0.00 0.00 1 1017.7
20260906063049 68 5 2.6 4.3 0.00 0.00 0.00 1 1017.8
20260906061558 68 5 2.6 5.2 0.00 0.00 0.00 1 1017.6
20260906060039 69 5 3.5 7.0 0.00 0.00 0.00 1 1017.5
20260906054535 68 5 3.5 7.0 0.00 0.00 0.00 1 1017.5
20260906053037 68 5 2.6 7.0 0.00 0.00 0.00 1 1017.3
20260906051526 69 5 2.6 7.0 0.00 0.00 0.00 1 1017.1
20260906050022 69 5 3.5 7.8 0.00 0.00 0.00 1 1016.9
20260906044518 69 5 5.2 9.6 0.00 0.00 0.00 1 1016.9
20260906043023 69 5 3.5 7.8 0.00 0.00 0.00 1 1017.0
20260906041511 69 5 5.2 11.3 0.00 0.00 0.00 1 1016.7
20260906040007 69 5 7.0 12.2 0.00 0.00 0.00 1 1016.4
20260906034503 70 5 8.7 13.0 0.00 0.00 0.00 1 1016.1
20260906033059 70 5 8.7 13.0 0.00 0.00 0.00 1 1016.0
20260906031603 70 5 8.7 15.6 0.00 0.00 0.00 1 1016.1
20260906030052 71 5 7.0 12.2 0.00 0.00 0.00 1 1016.0
20260906024546 71 5 9.6 15.6 0.00 0.00 0.00 1 1015.7
20260906023101 72 5 9.6 13.9 0.00 0.00 0.00 1 1015.4
20260906021539 72 5 12.2 15.6 0.00 0.00 0.00 1 1015.3
20260906020036 73 5 7.0 13.0 0.00 0.00 0.00 1 1015.2
20260906014541 74 5 12.2 15.6 0.00 0.00 0.00 1 1014.9
20260906013026 74 5 8.7 12.2 0.00 0.00 0.00 1 1014.8
20260906011524 74 5 5.2 9.6 0.00 0.00 0.00 1 1014.7
20260906010017 74 5 6.1 9.6 0.00 0.00 0.00 1 1014.6
20260906004514 74 5 4.3 9.6 0.00 0.00 0.00 1 1014.5
20260906003008 74 5 4.3 8.7 0.00 0.00 0.00 1 1014.6
20260906001504 75 5 5.2 8.7 0.00 0.00 0.00 1 1014.7
20260906000108 76 5 4.3 7.8 0.00 0.00 0.00 1 1014.5
20260905234600 77 5 5.2 9.6 0.00 0.00 0.00 1 1014.8
20260905233054 78 5 5.2 8.7 0.00 0.00 0.00 1 1014.7
20260905231547 79 5 5.2 11.3 0.00 0.00 0.00 1 1014.7
20260905230044 80 5 7.0 10.4 0.00 0.00 0.00 1 1014.5
20260905224539 79 5 3.5 8.7 0.00 0.00 0.00 1 1014.8
20260905223036 79 5 6.1 10.4 0.00 0.00 0.00 1 1014.5
20260905221528 78 5 6.1 8.7 0.00 0.00 0.00 1 1014.5
20260905220024 78 5 6.1 12.2 0.00 0.00 0.00 1 1014.4
20260905214520 79 5 8.7 12.2 0.00 0.00 0.00 1 1014.4
20260905213016 79 5 9.6 12.2 0.00 0.00 0.00 1 1014.2
20260905211511 80 5 7.8 14.8 0.00 0.00 0.00 1 1014.3
20260905210007 81 5 10.4 13.9 0.00 0.00 0.00 1 1014.4
20260905204503 82 5 9.6 14.8 0.00 0.00 0.00 1 1014.4
20260905203101 82 5 9.6 15.6 0.00 0.00 0.00 1 1014.2
20260905201554 82 5 13.0 15.6 0.00 0.00 0.00 1 1014.4
20260905200054 83 5 12.2 15.6 0.00 0.00 0.00 1 1014.4
20260905194546 83 5 10.4 14.8 0.00 0.00 0.00 1 1014.4
20260905193042 83 5 8.7 13.9 0.00 0.00 0.00 1 1014.3
20260905191538 84 5 7.0 12.2 0.00 0.00 0.00 1 1014.4
20260905190045 85 5 8.7 12.2 0.00 0.00 0.00 1 1014.4
20260905184529 85 5 7.0 13.0 0.00 0.00 0.00 1 1014.2
20260905183024 85 5 7.8 14.8 0.00 0.00 0.00 1 1014.3
20260905181524 84 5 9.6 13.0 0.00 0.00 0.00 1 1014.4
20260905180019 84 5 7.8 11.3 0.00 0.00 0.00 1 1014.6
20260905174510 84 5 7.8 10.4 0.00 0.00 0.00 1 1014.7
20260905173006 85 5 7.8 11.3 0.00 0.00 0.00 1 1014.7
20260905171502 84 5 7.8 12.2 0.00 0.00 0.00 1 1014.6
20260905170058 84 5 8.7 12.2 0.00 0.00 0.00 1 1014.7
20260905164557 83 5 7.8 12.2 0.00 0.00 0.00 1 1014.5
20260905163048 83 5 8.7 13.0 0.00 0.00 0.00 1 1014.7
20260905161543 83 5 8.7 10.4 0.00 0.00 0.00 1 1014.7
20260905160040 82 5 7.0 12.2 0.00 0.00 0.00 1 1014.7
20260905154535 81 5 8.7 13.0 0.00 0.00 0.00 1 1014.8
20260905153047 81 5 7.8 11.3 0.00 0.00 0.00 1 1014.6
20260905151527 80 5 8.7 12.2 0.00 0.00 0.00 1 1014.5
20260905150022 78 5 8.7 12.2 0.00 0.00 0.00 1 1014.3
20260905144519 77 5 8.7 12.2 0.00 0.00 0.00 1 1014.2
20260905143021 76 5 8.7 13.0 0.00 0.00 0.00 1 1014.0